This demonstration page uses our WeatherBlox Daily Observations layout. Learn more.

Left ArrowRight Arrow

34.16533, -84.80231

Hourly Observations for August 5, 2019

Temp ( °F °C ) Dew Point ( °F °C ) Humidity (%) Winds ( mph kmh ) Pressure ( in mb ) Visibility ( mi km ) Precip ( " mm )
12:53 am 00:53 Clear 73 22.8 70 21.1 90 90 Calm 29.94 1014 10 16 0.00 0.00
1:53 am 01:53 Clear 73 22.8 69 20.6 87 87 NNW 3 6 29.95 1014 10 16 0.00 0.00
2:53 am 02:53 Clear 71 21.7 68 20 90 90 Calm 29.94 1014 10 16 0.00 0.00
3:53 am 03:53 Cloudy 72 22.2 68 20 87 87 Calm 29.94 1014 10 16 0.00 0.00
4:00 am 04:00 Cloudy 72 22.2 68 20 87 87 N 3 6 29.96 1014 10 16 0.00 0.00
4:28 am 04:28 Cloudy 72 22.2 68 20 87 87 Calm 29.96 1014 10 16 0.00 0.00
4:53 am 04:53 Cloudy 72 22.2 68 20 87 87 Calm 29.95 1014 9 14 0.00 0.00
5:17 am 05:17 Mostly Cloudy 72 22.2 68 20 87 87 Calm 29.96 1014 9 14 0.00 0.00
5:53 am 05:53 Mostly Cloudy 71 21.7 68 20 90 90 Calm 29.94 1014 10 16 0.00 0.00
6:53 am 06:53 Cloudy 71 21.7 69 20.6 94 94 undefined N/A 29.95 1014 8 13 0.00 0.00
7:29 am 07:29 Mostly Cloudy 71 21.7 69 20.6 94 94 Calm 29.99 1016 7 11 0.00 0.00
7:38 am 07:38 Mostly Cloudy 72 22.2 69 20.6 91 91 Calm 29.99 1015 7 11 0.00 0.00
7:53 am 07:53 Cloudy 72 22.2 69 20.6 91 91 VRB 3 6 29.98 1015 8 13 0.00 0.00
8:05 am 08:05 Cloudy 72 22.2 69 20.6 91 91 Calm 30.00 1016 9 14 0.00 0.00
8:53 am 08:53 Cloudy 73 22.8 69 20.6 87 87 N 3 6 29.98 1015 10 16 0.00 0.00
9:53 am 09:53 Mostly Cloudy 76 24.4 69 20.6 79 79 Calm 29.98 1015 10 16 0.00 0.00
10:02 am 10:02 Partly Cloudy 76 24.4 69 20.6 79 79 N 3 6 29.99 1016 10 16 0.00 0.00
10:53 am 10:53 Sunny 79 26.1 69 20.6 72 72 undefined N/A 29.98 1015 10 16 0.00 0.00
11:53 am 11:53 Sunny 83 28.3 69 20.6 63 63 VRB 5 7 29.97 1015 10 16 0.00 0.00
12:53 pm 12:53 Sunny 86 30 71 21.7 61 61 VRB 5 7 29.96 1014 10 16 0.00 0.00
1:53 pm 13:53 Sunny 88 31.1 68 20 52 52 N 5 7 29.94 1014 10 16 0.00 0.00
2:53 pm 14:53 Mostly Sunny 88 31.1 69 20.6 54 54 VRB 6 9 29.93 1013 10 16 0.00 0.00
3:53 pm 15:53 Sunny 90 32.2 66 18.9 45 45 VRB 3 6 29.90 1013 10 16 0.00 0.00
4:53 pm 16:53 Sunny 90 32.2 65 18.3 44 44 Calm 29.89 1012 10 16 0.00 0.00
5:53 pm 17:53 Sunny 90 32.2 66 18.9 45 45 Calm 29.88 1012 10 16 0.00 0.00
6:53 pm 18:53 Mostly Sunny 89 31.7 68 20 50 50 Calm 29.88 1012 10 16 0.00 0.00
7:53 pm 19:53 Sunny 82 27.8 71 21.7 69 69 Calm 29.89 1012 10 16 0.00 0.00
8:53 pm 20:53 Cloudy 80 26.7 71 21.7 74 74 Calm 29.91 1013 10 16 0.00 0.00
9:53 pm 21:53 Cloudy 80 26.7 70 21.1 71 71 Calm 29.92 1013 10 16 0.00 0.00
10:53 pm 22:53 Cloudy with Rain 75 23.9 72 22.2 90 90 SW 5 7 29.94 1014 3 4 0.13 3.30
11:05 pm 23:05 Cloudy with Heavy Rain 74 23.3 69 20.6 85 85 SSW 7 11 29.95 1014 2 2 0.15 3.81
11:16 pm 23:16 Cloudy with Rain 73 22.8 69 20.6 87 87 SW 5 7 29.95 1014 3 5 0.21 5.33
11:53 pm 23:53 Mostly Cloudy 73 22.8 70 21.1 90 90 Calm 29.92 1013 10 16 0.21 5.33

Powered by AerisWeather